QPF
0.00 0.00 0.00 0.00 0.00 0.00 0.00 0.00 0.00 0.00 0.00 0.00 0.00 0.00 0.00 0.00 0.00 0.00 0.00 0.00 0.00 0.00 0.00 0.00 0.00 0.00 0.00 0.00 0.00 0.00 0.00 0.00 0.00 0.00 0.00 0.00 0.00 0.00 0.00 0.00 0.00 0.00 0.00 0.03 0.05
0.00 0.00 0.00 0.00 0.00 0.00 0.00 0.00 0.00 0.00 0.00 0.00 0.00 0.00 0.00 0.00 0.00 0.00 0.00 0.00 0.00 0.00 0.00 0.00 0.00 0.00 0.00 0.00 0.00 0.00 0.00 0.00 0.00 0.00 0.00 0.00 0.00 0.00 0.00 0.00 0.00 0.00 0.01 0.03 0.02
0.00 0.00 0.00 0.00 0.00 0.00 0.00 0.00 0.00 0.00 0.00 0.00 0.00 0.00 0.00 0.00 0.00 0.00 0.00 0.00 0.00 0.00 0.00 0.00 0.00 0.00 0.00 0.00 0.00 0.00 0.00 0.00 0.00 0.00 0.00 0.00 0.00 0.00 0.00 0.00 0.00 0.00 0.00 0.00 0.01
0.00 0.00 0.00 0.00 0.00 0.00 0.00 0.00 0.00 0.00 0.00 0.00 0.00 0.00 0.00 0.00 0.00 0.00 0.00 0.00 0.00 0.00 0.00 0.00 0.00 0.00 0.00 0.00 0.00 0.00 0.00 0.00 0.00 0.00 0.00 0.00 0.00 0.00 0.00 0.00 0.00 0.00 0.00 0.00 0.01
0.00 0.00 0.00 0.00 0.00 0.00 0.00 0.00 0.00 0.00 0.00 0.00 0.00 0.00 0.00 0.00 0.00 0.00 0.00 0.00 0.00 0.00 0.00 0.00 0.00 0.00 0.00 0.00 0.00 0.00 0.00 0.00 0.00 0.00 0.00 0.00 0.00 0.00 0.00 0.00 0.00 0.00 0.00 0.00 0.00
0.00 0.00 0.00 0.00 0.00 0.00 0.00 0.00 0.00 0.00 0.00 0.00 0.00 0.00 0.00 0.00 0.00 0.00 0.00 0.00 0.00 0.00 0.00 0.00 0.00 0.00 0.00 0.00 0.00 0.00 0.00 0.00 0.00 0.00 0.00 0.00 0.00 0.00 0.00 0.00 0.00 0.00 0.00 0.00 0.00
0.00 0.00 0.00 0.00 0.00 0.00 0.00 0.00 0.00 0.00 0.00 0.00 0.00 0.00 0.00 0.00 0.00 0.00 0.00 0.00 0.00 0.00 0.00 0.00 0.00 0.00 0.00 0.00 0.00 0.00 0.00 0.00 0.00 0.00 0.00 0.00 0.00 0.00 0.00 0.00 0.00 0.00 0.00 0.00 0.00
0.01 0.01 0.00 0.00 0.00 0.00 0.00 0.00 0.00 0.00 0.00 0.00 0.00 0.00 0.00 0.00 0.00 0.00 0.00 0.00 0.00 0.00 0.00 0.00 0.00 0.00 0.00 0.00 0.00 0.00 0.00 0.00 0.00 0.00 0.00 0.00 0.00 0.00 0.00 0.00 0.00 0.00 0.00 0.00 0.00
0.00 0.00 0.00 0.00 0.00 0.00 0.00 0.00 0.00 0.00 0.00 0.00 0.00 0.00 0.00 0.00 0.00 0.00 0.00 0.00 0.00 0.00 0.00 0.00 0.00 0.00 0.00 0.00 0.00 0.00 0.00 0.00 0.00 0.00 0.00 0.00 0.00 0.00 0.00 0.00 0.00 0.00 0.00 0.00 0.00
0.00 0.00 0.00 0.00 0.00 0.00 0.00 0.00 0.00 0.00 0.00 0.00 0.00 0.00 0.00 0.00 0.00 0.00 0.00 0.00 0.00 0.00 0.00 0.00 0.00 0.00 0.00 0.00 0.00 0.00 0.00 0.00 0.00 0.00 0.00 0.00 0.00 0.00 0.00 0.00 0.00 0.00 0.00 0.00 0.00
0.00 0.00 0.00 0.00 0.00 0.00 0.00 0.00 0.00 0.00 0.00 0.00 0.00 0.00 0.00 0.00 0.00 0.00 0.00 0.00 0.00 0.00 0.00 0.00 0.00 0.00 0.00 0.00 0.00 0.00 0.00 0.00 0.00 0.00 0.00 0.00 0.00 0.00 0.00 0.00 0.00 0.00 0.00 0.00 0.00
0.00 0.00 0.00 0.00 0.00 0.00 0.00 0.00 0.00 0.00 0.00 0.00 0.00 0.00 0.00 0.00 0.00 0.00 0.00 0.00 0.00 0.00 0.00 0.00 0.00 0.00 0.00 0.00 0.00 0.00 0.00 0.00 0.00 0.00 0.00 0.00 0.00 0.00 0.00 0.00 0.00 0.00 0.00 0.00 0.00
0.00 0.00 0.00 0.00 0.00 0.00 0.00 0.00 0.00 0.00 0.00 0.00 0.00 0.00 0.00 0.00 0.00 0.00 0.00 0.00 0.00 0.00 0.00 0.00 0.00 0.00 0.00 0.00 0.00 0.00 0.00 0.00 0.00 0.00 0.00 0.00 0.00 0.00 0.00 0.00 0.00 0.00 0.00 0.00 0.00
0.00 0.00 0.00 0.00 0.00 0.00 0.00 0.00 0.00 0.00 0.00 0.00 0.00 0.00 0.00 0.00 0.00 0.00 0.00 0.00 0.00 0.00 0.00 0.00 0.00 0.00 0.00 0.00 0.00 0.00 0.00 0.00 0.00 0.00 0.00 0.00 0.00 0.00 0.00 0.00 0.00 0.00 0.00 0.00 0.00
0.00 0.00 0.00 0.00 0.00 0.00 0.00 0.00 0.00 0.00 0.00 0.00 0.00 0.00 0.00 0.00 0.00 0.00 0.00 0.00 0.00 0.00 0.00 0.00 0.00 0.00 0.00 0.00 0.00 0.00 0.00 0.00 0.00 0.00 0.00 0.00 0.00 0.00 0.00 0.00 0.00 0.00 0.00 0.00 0.00
0.00 0.00 0.00 0.00 0.00 0.00 0.00 0.00 0.00 0.00 0.00 0.00 0.00 0.00 0.00 0.00 0.00 0.00 0.00 0.00 0.00 0.00 0.00 0.00 0.00 0.00 0.00 0.00 0.00 0.00 0.00 0.00 0.00 0.00 0.00 0.00 0.00 0.00 0.00 0.00 0.00 0.00 0.00 0.00 0.00
0.00 0.00 0.00 0.00 0.00 0.00 0.00 0.00 0.00 0.00 0.00 0.00 0.00 0.00 0.00 0.00 0.00 0.00 0.00 0.00 0.00 0.00 0.00 0.00 0.00 0.00 0.00 0.00 0.00 0.00 0.00 0.00 0.00 0.00 0.00 0.00 0.00 0.00 0.00 0.00 0.00 0.00 0.00 0.00 0.00
0.00 0.00 0.00 0.00 0.00 0.00 0.00 0.00 0.00 0.00 0.00 0.00 0.00 0.00 0.00 0.00 0.00 0.00 0.00 0.00 0.00 0.00 0.00 0.00 0.00 0.00 0.00 0.00 0.00 0.00 0.00 0.00 0.00 0.00 0.00 0.00 0.00 0.00 0.00 0.00 0.00 0.00 0.00 0.00 0.00
0.00 0.00 0.00 0.00 0.00 0.00 0.00 0.00 0.00 0.00 0.00 0.00 0.00 0.00 0.00 0.00 0.00 0.00 0.00 0.00 0.00 0.00 0.00 0.00 0.00 0.00 0.00 0.00 0.00 0.00 0.00 0.00 0.00 0.00 0.00 0.00 0.00 0.00 0.00 0.00 0.00 0.00 0.00 0.00 0.00
0.00 0.00 0.00 0.00 0.00 0.00 0.00 0.00 0.00 0.00 0.00 0.00 0.00 0.00 0.00 0.00 0.00 0.00 0.00 0.00 0.00 0.00 0.00 0.00 0.00 0.00 0.00 0.00 0.00 0.00 0.00 0.00 0.00 0.00 0.00 0.00 0.00 0.00 0.00 0.00 0.00 0.00 0.00 0.00 0.00
0.00 0.00 0.00 0.00 0.00 0.00 0.00 0.01 0.00 0.00 0.00 0.00 0.00 0.00 0.00 0.00 0.00 0.00 0.00 0.00 0.00 0.00 0.00 0.00 0.00 0.00 0.00 0.00 0.00 0.00 0.00 0.00 0.00 0.00 0.00 0.00 0.00 0.00 0.00 0.00 0.00 0.00 0.00 0.00 0.00
0.00 0.00 0.00 0.00 0.00 0.00 0.00 0.00 0.00 0.00 0.00 0.00 0.00 0.00 0.01 0.01 0.00 0.00 0.00 0.00 0.00 0.00 0.00 0.00 0.01 0.00 0.00 0.00 0.00 0.00 0.00 0.00 0.00 0.00 0.00 0.00 0.00 0.00 0.00 0.00 0.00 0.00 0.00 0.00 0.00
0.00 0.00 0.00 0.00 0.00 0.00 0.00 0.00 0.00 0.00 0.00 0.00 0.00 0.00 0.00 0.01 0.01 0.00 0.00 0.00 0.00 0.00 0.01 0.01 0.03 0.03 0.00 0.00 0.00 0.00 0.00 0.00 0.00 0.00 0.00 0.00 0.00 0.00 0.00 0.00 0.00 0.00 0.00 0.00 0.00
0.00 0.00 0.00 0.00 0.00 0.00 0.00 0.00 0.00 0.00 0.00 0.00 0.00 0.00 0.00 0.00 0.00 0.01 0.00 0.00 0.00 0.00 0.00 0.04 0.04 0.02 0.00 0.00 0.00 0.02 0.00 0.00 0.01 0.00 0.00 0.00 0.00 0.00 0.00 0.00 0.00 0.00 0.00 0.00 0.00
0.00 0.00 0.00 0.00 0.00 0.00 0.00 0.00 0.00 0.00 0.00 0.00 0.00 0.00 0.01 0.02 0.00 0.00 0.00 0.00 0.00 0.00 0.00 0.02 0.06 0.02 0.03 0.03 0.01 0.02 0.01 0.02 0.03 0.01 0.00 0.00 0.00 0.00 0.00 0.00 0.00 0.00 0.00 0.00 0.00
0.00 0.00 0.01 0.00 0.00 0.00 0.00 0.00 0.00 0.00 0.00 0.00 0.00 0.00 0.00 0.01 0.01 0.01 0.00 0.00 0.00 0.00 0.00 0.00 0.01 0.01 0.01 0.00 0.00 0.02 0.01 0.01 0.00 0.00 0.01 0.00 0.00 0.00 0.00 0.00 0.00 0.00 0.00 0.00 0.00
0.03 0.03 0.05 0.03 0.02 0.00 0.00 0.00 0.00 0.00 0.00 0.00 0.00 0.01 0.00 0.00 0.00 0.00 0.00 0.00 0.00 0.00 0.00 0.00 0.01 0.01 0.01 0.00 0.00 0.02 0.01 0.00 0.00 0.00 0.00 0.00 0.00 0.00 0.00 0.00 0.00 0.00 0.00 0.00 0.00
MSLP
1022.12 1021.82 1021.51 1021.21 1020.92 1020.64 1020.38 1020.11 1019.84 1019.62 1019.39 1019.15 1018.89 1018.62 1018.32 1017.98 1017.51 1016.92 1016.22 1015.80 1015.98 1016.11 1016.18 1016.03 1015.92 1015.96 1015.89 1015.59 1015.68 1015.46 1014.35 1012.86 1012.46 1012.18 1011.58 1011.81 1011.77 1011.54 1011.60 1011.20 1010.83 1010.43 1009.74 1009.15 1009.31
1022.31 1021.95 1021.59 1021.26 1020.90 1020.54 1020.19 1019.89 1019.62 1019.38 1019.17 1018.97 1018.75 1018.50 1018.18 1017.86 1017.19 1016.10 1015.55 1015.73 1015.94 1016.03 1015.99 1015.76 1015.75 1015.94 1015.63 1015.57 1015.49 1014.99 1013.96 1012.76 1012.47 1012.21 1011.95 1011.80 1011.71 1011.44 1011.26 1010.78 1010.30 1009.96 1009.36 1009.10 1009.17
1022.37 1022.02 1021.59 1021.17 1020.80 1020.44 1020.08 1019.73 1019.41 1019.11 1018.84 1018.62 1018.46 1018.26 1017.97 1017.64 1016.74 1014.85 1015.18 1015.50 1015.70 1015.87 1015.92 1016.01 1016.07 1015.96 1015.61 1015.53 1015.11 1014.58 1013.50 1012.96 1012.69 1012.49 1012.33 1011.97 1011.62 1011.34 1010.90 1010.21 1009.86 1009.47 1009.14 1008.83 1008.75
1022.48 1022.15 1021.74 1021.31 1020.88 1020.46 1020.03 1019.57 1019.16 1018.88 1018.62 1018.42 1018.28 1018.09 1017.80 1017.37 1015.93 1014.67 1014.97 1015.29 1015.50 1015.74 1015.89 1015.91 1015.90 1015.65 1015.36 1014.99 1014.76 1014.48 1013.52 1013.25 1012.79 1012.70 1012.43 1011.89 1011.51 1010.94 1010.53 1009.61 1009.29 1009.08 1008.89 1008.94 1008.56
1022.53 1022.17 1021.77 1021.32 1020.84 1020.35 1019.86 1019.36 1018.90 1018.54 1018.33 1018.19 1018.11 1018.00 1017.67 1016.75 1014.74 1014.62 1014.90 1015.21 1015.44 1015.62 1015.50 1015.58 1015.59 1015.42 1015.04 1014.87 1014.79 1014.10 1013.43 1013.08 1012.68 1012.49 1012.33 1011.93 1011.27 1010.66 1009.66 1009.20 1009.00 1008.76 1008.57 1008.72 1008.01
1022.59 1022.21 1021.78 1021.28 1020.74 1020.19 1019.65 1019.10 1018.58 1018.17 1017.99 1017.94 1017.92 1017.88 1017.27 1016.03 1014.36 1014.58 1014.98 1015.35 1015.21 1015.33 1015.38 1015.51 1015.27 1015.44 1015.25 1015.00 1014.70 1013.75 1013.51 1012.83 1012.36 1011.80 1011.65 1011.34 1010.48 1010.48 1008.80 1008.57 1008.40 1008.40 1008.13 1008.43 1008.18
1022.72 1022.30 1021.83 1021.30 1020.68 1019.97 1019.35 1018.72 1018.11 1017.66 1017.53 1017.64 1017.71 1017.58 1016.90 1014.86 1014.16 1014.38 1014.90 1015.03 1015.23 1015.19 1015.28 1015.45 1015.50 1015.59 1015.35 1014.78 1014.59 1014.07 1013.24 1012.22 1011.31 1011.08 1011.13 1011.05 1009.84 1009.04 1008.61 1008.50 1008.00 1007.73 1007.67 1007.52 1007.99
1022.86 1022.35 1021.77 1021.16 1020.45 1019.74 1018.97 1018.28 1017.58 1017.03 1016.95 1017.24 1017.46 1017.28 1015.46 1014.56 1014.46 1014.72 1014.74 1014.94 1015.28 1015.42 1015.45 1015.61 1015.76 1015.61 1015.46 1014.97 1014.30 1013.74 1013.08 1011.64 1010.82 1011.07 1010.72 1011.13 1008.01 1007.91 1008.24 1008.26 1007.57 1007.08 1007.05 1006.79 1006.70
1022.89 1022.30 1021.68 1020.98 1020.23 1019.46 1018.59 1017.80 1017.19 1016.86 1016.73 1017.07 1017.38 1016.98 1014.97 1014.89 1014.70 1014.30 1014.47 1014.54 1015.19 1015.52 1015.63 1015.73 1015.85 1015.48 1015.42 1014.82 1013.97 1013.27 1011.96 1011.23 1010.60 1010.82 1010.74 1010.44 1007.93 1007.59 1007.83 1007.80 1007.12 1006.76 1006.59 1006.42 1006.18
1022.85 1022.20 1021.55 1020.83 1020.07 1019.23 1018.32 1017.42 1017.08 1016.97 1016.97 1016.96 1016.92 1017.04 1014.91 1014.17 1014.08 1014.23 1014.64 1014.73 1014.95 1015.34 1015.65 1015.68 1015.47 1014.98 1014.72 1014.20 1012.77 1012.02 1011.91 1011.15 1010.93 1010.64 1010.53 1009.49 1007.27 1006.63 1006.62 1006.77 1006.44 1006.19 1005.87 1005.80 1005.50
1022.85 1022.18 1021.44 1020.62 1019.87 1019.04 1018.10 1017.19 1017.29 1017.05 1016.71 1015.37 1014.62 1013.70 1013.65 1014.07 1014.07 1014.08 1014.26 1014.68 1014.78 1014.98 1014.83 1015.15 1014.79 1013.30 1012.68 1012.88 1012.47 1012.51 1012.16 1011.31 1010.62 1010.58 1010.44 1008.56 1006.75 1005.47 1005.03 1005.40 1005.26 1005.22 1005.15 1004.98 1004.84
1022.75 1022.00 1021.21 1020.34 1019.47 1018.70 1018.02 1017.56 1018.11 1018.42 1016.49 1014.33 1013.61 1013.63 1013.85 1013.70 1013.76 1014.02 1014.38 1014.36 1014.41 1014.17 1014.52 1014.93 1013.53 1012.53 1012.95 1013.01 1012.93 1012.63 1012.16 1011.03 1010.53 1010.82 1010.63 1008.10 1005.73 1004.13 1003.70 1003.64 1003.79 1004.11 1004.13 1003.95 1003.65
1022.65 1021.84 1020.97 1020.03 1019.09 1018.55 1018.61 1018.73 1018.75 1018.57 1017.11 1013.99 1013.58 1013.39 1013.43 1013.72 1013.30 1013.46 1013.98 1013.83 1013.82 1013.94 1014.06 1013.28 1012.72 1012.58 1012.96 1013.06 1012.99 1012.49 1012.04 1011.30 1011.39 1010.88 1009.94 1008.80 1004.59 1003.31 1002.94 1003.40 1003.51 1003.77 1003.80 1003.65 1003.53
1022.61 1021.80 1020.94 1019.96 1019.05 1019.10 1018.74 1018.99 1018.74 1018.59 1016.98 1013.82 1013.47 1013.39 1013.48 1013.40 1013.47 1013.48 1013.63 1013.64 1013.91 1013.46 1013.75 1013.44 1012.50 1012.87 1013.02 1012.72 1012.84 1012.15 1011.88 1012.12 1012.12 1011.76 1010.14 1009.62 1005.86 1003.08 1002.70 1002.48 1002.66 1002.87 1003.00 1003.13 1003.24
1022.48 1021.39 1020.47 1020.02 1019.77 1019.15 1019.30 1018.90 1018.54 1018.32 1016.47 1013.75 1013.40 1013.59 1013.55 1013.79 1013.85 1013.84 1013.99 1013.84 1013.42 1013.53 1013.79 1012.47 1012.71 1012.73 1012.55 1012.12 1012.44 1012.17 1012.50 1012.47 1012.48 1012.04 1011.39 1009.19 1007.95 1003.16 1002.65 1002.00 1002.38 1002.54 1002.65 1002.67 1002.92
1022.05 1020.96 1020.02 1019.90 1019.87 1019.40 1019.24 1018.78 1018.32 1018.00 1015.11 1013.45 1013.29 1013.29 1013.47 1013.51 1013.70 1014.02 1014.13 1014.29 1014.25 1013.89 1013.58 1012.66 1013.03 1012.66 1011.91 1012.11 1012.20 1012.38 1012.68 1012.84 1012.77 1012.53 1011.17 1008.36 1007.70 1003.60 1002.34 1002.26 1002.33 1002.41 1002.73 1003.05 1003.21
1021.91 1020.93 1020.23 1020.26 1020.10 1019.74 1019.13 1018.50 1018.45 1017.02 1014.40 1014.60 1014.33 1014.23 1014.05 1013.56 1013.62 1013.69 1013.73 1013.86 1013.84 1013.86 1012.97 1012.25 1011.94 1011.87 1012.07 1012.12 1012.46 1012.39 1012.30 1012.14 1012.21 1012.08 1009.86 1009.47 1008.18 1003.77 1002.71 1002.62 1002.63 1002.66 1002.77 1002.80 1003.07
1021.69 1021.14 1020.78 1020.61 1020.23 1019.68 1019.19 1018.49 1018.28 1016.80 1016.54 1016.35 1015.83 1015.10 1014.77 1014.54 1014.07 1014.10 1013.94 1013.77 1013.91 1013.68 1012.83 1012.02 1010.99 1011.01 1011.03 1010.62 1010.55 1011.11 1011.32 1010.91 1010.26 1009.97 1009.12 1009.58 1006.66 1003.16 1002.90 1002.96 1002.97 1003.07 1003.15 1003.06 1002.96
1021.81 1021.20 1020.74 1020.48 1020.19 1019.66 1019.02 1018.91 1018.82 1019.43 1019.60 1018.49 1016.76 1015.84 1015.58 1015.64 1015.64 1014.83 1014.55 1014.43 1014.59 1014.42 1013.52 1011.69 1010.33 1010.66 1010.52 1010.43 1010.43 1011.09 1010.91 1010.62 1010.17 1010.16 1009.25 1006.80 1005.16 1003.48 1002.48 1002.70 1002.86 1003.15 1003.39 1003.26 1003.23
1022.60 1021.77 1020.77 1020.58 1020.17 1019.58 1019.25 1019.70 1020.41 1021.10 1020.70 1020.00 1018.76 1017.96 1017.30 1017.06 1016.85 1016.02 1015.50 1016.53 1016.35 1015.98 1015.07 1013.30 1011.73 1010.35 1010.57 1010.84 1010.74 1010.19 1009.74 1010.59 1010.17 1008.95 1007.51 1005.63 1004.74 1003.10 1002.55 1002.50 1002.72 1003.12 1003.34 1003.55 1003.68
1023.02 1021.76 1021.25 1020.51 1019.96 1019.65 1020.39 1021.62 1021.88 1021.89 1021.64 1020.92 1020.14 1019.49 1018.87 1019.07 1018.78 1017.94 1016.62 1018.06 1017.70 1017.15 1015.98 1015.37 1013.51 1011.55 1011.31 1010.28 1009.68 1010.40 1009.76 1009.18 1008.58 1007.72 1006.05 1004.71 1003.34 1002.59 1002.57 1002.74 1002.77 1003.02 1003.33 1003.54 1003.81
1024.01 1022.61 1022.09 1020.86 1021.11 1021.98 1022.33 1023.06 1022.99 1022.25 1022.16 1021.70 1021.23 1021.03 1020.95 1020.76 1020.03 1019.23 1018.38 1018.43 1018.73 1018.77 1018.19 1017.66 1015.74 1012.53 1010.51 1009.70 1009.66 1009.25 1008.54 1008.35 1007.25 1006.64 1006.32 1004.90 1002.69 1002.38 1002.44 1002.79 1003.09 1003.18 1003.41 1003.70 1003.99
1024.78 1024.25 1023.15 1022.27 1022.69 1023.10 1023.54 1023.56 1023.42 1022.90 1022.58 1022.18 1021.79 1021.74 1021.63 1021.57 1021.39 1020.26 1019.85 1019.69 1019.46 1019.62 1019.50 1019.31 1016.93 1014.06 1011.10 1010.37 1010.49 1009.87 1008.97 1008.56 1007.63 1006.68 1004.79 1004.72 1002.24 1002.60 1002.55 1002.64 1002.92 1003.23 1003.38 1003.70 1003.86
1025.54 1024.82 1024.33 1024.35 1024.74 1024.59 1024.39 1023.80 1023.49 1023.23 1022.85 1022.63 1022.38 1022.12 1022.00 1021.74 1021.62 1020.60 1020.02 1019.82 1019.85 1019.58 1019.45 1019.29 1018.31 1016.87 1013.95 1011.55 1012.25 1010.56 1009.15 1008.27 1007.69 1006.39 1003.93 1003.27 1002.81 1002.47 1002.50 1002.28 1002.47 1002.95 1003.27 1003.41 1003.51
1026.21 1025.95 1025.98 1025.18 1024.62 1024.84 1025.20 1024.39 1023.68 1023.09 1022.97 1022.74 1022.14 1022.13 1022.22 1021.90 1021.14 1020.58 1019.91 1019.45 1019.34 1019.22 1019.04 1018.81 1017.90 1017.25 1015.66 1014.77 1013.84 1012.64 1011.64 1009.29 1007.24 1005.67 1004.29 1001.99 1002.25 1002.38 1001.70 1001.59 1001.84 1002.44 1002.68 1002.51 1002.56
1026.39 1026.26 1026.48 1025.68 1025.24 1025.01 1024.56 1024.07 1023.52 1022.93 1023.03 1022.45 1022.45 1022.09 1021.97 1021.56 1021.11 1020.51 1019.97 1019.45 1019.00 1018.70 1018.92 1018.77 1017.81 1017.24 1015.89 1015.04 1014.23 1012.78 1011.18 1010.01 1008.10 1005.85 1004.38 1003.14 1001.85 1001.82 1002.22 1002.04 1002.22 1002.16 1002.37 1002.35 1002.39
1026.53 1026.50 1026.23 1025.33 1025.03 1024.71 1023.86 1023.56 1022.97 1022.75 1022.44 1022.14 1022.11 1021.91 1021.43 1020.84 1020.67 1020.04 1019.65 1019.11 1018.71 1018.22 1017.28 1018.07 1017.97 1017.38 1015.05 1014.35 1013.45 1010.82 1009.14 1008.70 1007.38 1005.78 1004.05 1002.51 1001.57 1002.09 1001.74 1001.79 1001.95 1002.05 1002.49 1002.66 1002.55
Thickness
5631 5633 5635 5637 5639 5642 5644 5646 5648 5650 5651 5653 5654 5655 5657 5658 5661 5664 5664 5669 5665 5662 5660 5659 5657 5653 5651 5647 5642 5638 5632 5638 5634 5630 5634 5632 5621 5621 5613 5607 5607 5612 5617 5627 5637
5629 5631 5634 5636 5638 5641 5643 5645 5647 5648 5649 5650 5651 5651 5653 5654 5658 5662 5667 5663 5659 5657 5655 5653 5649 5645 5643 5640 5635 5631 5630 5636 5637 5634 5627 5624 5617 5610 5602 5601 5603 5604 5613 5622 5630
5628 5630 5632 5635 5638 5640 5642 5644 5646 5647 5649 5649 5649 5649 5650 5650 5655 5667 5664 5659 5656 5652 5651 5646 5642 5639 5635 5634 5632 5631 5629 5635 5628 5627 5623 5616 5611 5608 5598 5596 5599 5596 5599 5613 5622
5624 5626 5629 5632 5634 5637 5640 5643 5645 5646 5646 5646 5646 5646 5646 5647 5654 5665 5660 5656 5652 5648 5644 5640 5636 5632 5630 5627 5630 5621 5629 5626 5624 5618 5614 5609 5608 5600 5597 5599 5603 5600 5600 5603 5609
5621 5623 5626 5628 5631 5634 5636 5639 5642 5643 5643 5643 5642 5641 5643 5644 5657 5660 5655 5650 5646 5642 5639 5635 5630 5628 5624 5624 5621 5619 5622 5621 5621 5616 5610 5608 5601 5596 5596 5601 5601 5598 5598 5597 5608
5618 5620 5622 5625 5628 5631 5634 5637 5639 5641 5640 5639 5637 5636 5639 5636 5657 5652 5646 5642 5641 5637 5633 5629 5627 5623 5619 5615 5613 5621 5616 5616 5617 5616 5614 5606 5604 5592 5601 5603 5600 5595 5597 5598 5607
5614 5616 5618 5621 5625 5628 5631 5635 5638 5639 5638 5635 5632 5631 5633 5645 5650 5646 5639 5635 5631 5629 5624 5622 5620 5613 5612 5610 5612 5610 5609 5616 5619 5619 5610 5606 5602 5597 5602 5598 5598 5600 5599 5604 5607
5609 5611 5614 5617 5621 5624 5628 5631 5634 5636 5634 5630 5625 5624 5635 5644 5639 5634 5631 5625 5620 5617 5615 5612 5609 5606 5602 5605 5606 5602 5605 5609 5619 5612 5613 5600 5612 5613 5604 5595 5597 5604 5602 5606 5612
5602 5605 5609 5612 5616 5619 5623 5627 5629 5629 5628 5622 5617 5616 5631 5629 5627 5627 5622 5617 5610 5605 5603 5600 5597 5597 5593 5593 5597 5599 5608 5608 5610 5608 5605 5600 5613 5614 5605 5596 5599 5604 5607 5610 5617
5597 5600 5603 5605 5608 5612 5616 5620 5620 5618 5616 5612 5610 5606 5619 5621 5620 5614 5608 5604 5599 5594 5588 5586 5587 5590 5588 5589 5600 5606 5599 5606 5596 5603 5602 5602 5615 5621 5615 5603 5601 5604 5610 5616 5623
5588 5592 5595 5597 5600 5604 5609 5612 5613 5610 5607 5622 5623 5624 5617 5611 5609 5604 5599 5591 5589 5586 5583 5579 5581 5594 5604 5598 5601 5591 5589 5593 5602 5601 5592 5607 5617 5627 5628 5617 5609 5609 5613 5621 5627
5579 5582 5586 5589 5592 5595 5596 5600 5589 5579 5592 5614 5614 5608 5604 5603 5599 5593 5589 5584 5581 5582 5579 5571 5580 5597 5593 5587 5583 5582 5583 5594 5600 5589 5584 5609 5622 5639 5639 5631 5624 5615 5621 5627 5635
5569 5573 5575 5578 5581 5582 5578 5573 5567 5564 5573 5602 5601 5600 5597 5592 5593 5589 5583 5582 5579 5576 5572 5581 5589 5584 5578 5575 5572 5577 5579 5588 5580 5585 5591 5591 5639 5639 5645 5632 5627 5619 5620 5626 5633
5556 5559 5561 5565 5571 5564 5566 5556 5553 5550 5568 5597 5588 5590 5587 5586 5582 5580 5577 5575 5568 5571 5567 5569 5582 5572 5569 5571 5570 5574 5580 5572 5567 5566 5580 5583 5609 5639 5639 5638 5636 5631 5625 5624 5629
5545 5550 5553 5552 5550 5553 5547 5544 5543 5543 5559 5582 5577 5571 5571 5571 5567 5566 5563 5562 5563 5559 5556 5571 5562 5561 5562 5569 5565 5567 5561 5561 5559 5559 5557 5581 5572 5632 5634 5639 5633 5633 5629 5626 5624
5537 5542 5544 5541 5537 5536 5532 5532 5534 5542 5548 5571 5565 5559 5558 5557 5554 5547 5546 5544 5543 5543 5546 5557 5549 5553 5564 5557 5558 5557 5550 5547 5545 5544 5551 5589 5578 5618 5631 5630 5630 5632 5629 5622 5617
5526 5529 5528 5524 5524 5518 5519 5523 5526 5536 5559 5551 5544 5542 5540 5545 5541 5538 5535 5533 5533 5527 5537 5547 5547 5548 5546 5545 5542 5546 5547 5542 5541 5531 5566 5537 5556 5613 5622 5619 5621 5623 5623 5622 5617
5514 5514 5511 5507 5505 5504 5504 5517 5510 5531 5520 5513 5516 5522 5524 5522 5528 5523 5525 5526 5522 5519 5525 5533 5546 5542 5545 5551 5549 5543 5544 5548 5551 5553 5568 5533 5563 5610 5612 5609 5610 5611 5613 5611 5612
5499 5499 5497 5493 5491 5491 5499 5494 5500 5475 5461 5470 5497 5503 5509 5498 5493 5505 5506 5509 5501 5501 5508 5528 5542 5528 5535 5536 5541 5530 5525 5542 5537 5529 5537 5571 5581 5599 5610 5603 5602 5602 5600 5604 5605
5478 5479 5484 5480 5478 5480 5486 5474 5455 5437 5440 5446 5459 5467 5466 5468 5467 5480 5487 5455 5449 5460 5469 5497 5507 5531 5521 5518 5519 5528 5538 5519 5521 5527 5539 5562 5563 5582 5595 5595 5596 5592 5593 5593 5591
5463 5472 5465 5465 5465 5470 5454 5426 5419 5416 5417 5419 5423 5426 5435 5419 5422 5439 5462 5418 5423 5427 5444 5446 5475 5505 5497 5507 5518 5507 5512 5521 5530 5537 5550 5559 5570 5587 5584 5585 5587 5587 5586 5586 5584
5438 5451 5441 5443 5434 5418 5410 5393 5393 5394 5392 5389 5389 5382 5375 5373 5384 5400 5412 5407 5399 5396 5391 5399 5414 5463 5497 5507 5505 5508 5516 5517 5524 5529 5526 5542 5566 5577 5578 5575 5573 5576 5575 5576 5574
5417 5411 5413 5414 5398 5391 5380 5370 5365 5364 5361 5360 5358 5354 5353 5347 5338 5360 5364 5373 5369 5365 5360 5360 5381 5410 5476 5486 5477 5475 5497 5501 5513 5516 5531 5520 5558 5566 5563 5566 5564 5561 5565 5565 5567
5395 5392 5389 5374 5361 5351 5343 5342 5334 5332 5330 5325 5323 5322 5316 5315 5317 5318 5331 5338 5340 5342 5345 5341 5341 5353 5394 5459 5427 5442 5477 5490 5491 5493 5529 5527 5543 5553 5553 5559 5559 5554 5555 5559 5563
5367 5359 5347 5347 5344 5328 5306 5306 5303 5300 5300 5295 5297 5293 5286 5277 5292 5295 5305 5314 5318 5321 5320 5318 5314 5333 5349 5361 5375 5383 5391 5434 5463 5493 5502 5542 5529 5537 5550 5555 5557 5552 5551 5556 5562
5345 5335 5319 5317 5306 5296 5292 5285 5283 5283 5274 5278 5269 5276 5275 5269 5274 5268 5283 5291 5292 5304 5294 5299 5292 5313 5313 5343 5351 5355 5379 5398 5418 5469 5484 5504 5514 5530 5528 5535 5537 5541 5542 5547 5555
5315 5303 5295 5295 5281 5275 5282 5274 5276 5274 5274 5273 5266 5263 5266 5272 5274 5279 5280 5281 5283 5284 5295 5285 5279 5288 5293 5333 5338 5345 5387 5395 5413 5442 5474 5485 5514 5512 5520 5520 5526 5529 5530 5535 5544